SWR36A EHAM-LSZH

Flight info

Callsign SWR36A
Flight time 1h 2m
Altitude 35000
Route RENDI2Z EDUPO Z739 MISGO DCT ASBON DCT TUSUK DCT LAMGO/N0449F270 T721 SUL/N0436F250 T721 RILAX RILAX2A
Aircraft A346/H-SDE2E3FGHIJ3J4J5M1RWXY/LB1D1

Departure

Time 2026-05-04 15:39
Airport Amsterdam Airport Schiphol (EHAM)

Arrival

Time 2026-05-04 16:42
Airport Zürich Airport (LSZH)
Time Latitude Longitude Altitude Speed Heading
2026-05-04 15:03 52.31301 4.76318 8 ft 0 kts 254°
2026-05-04 15:22 52.31303 4.76330 8 ft 2 kts 255°
2026-05-04 15:23 52.31306 4.76354 8 ft 2 kts 270°
2026-05-04 15:23 52.31304 4.76377 8 ft 2 kts 287°
2026-05-04 15:23 52.31298 4.76400 8 ft 2 kts 302°
2026-05-04 15:23 52.31289 4.76419 8 ft 2 kts 316°
2026-05-04 15:24 52.31263 4.76443 8 ft 2 kts 347°
2026-05-04 15:24 52.31241 4.76445 8 ft 1 kts
2026-05-04 15:25 52.31240 4.76445 8 ft 0 kts
2026-05-04 15:28 52.31306 4.76444 8 ft 14 kts 350°
2026-05-04 15:28 52.31428 4.76390 8 ft 20 kts 343°
2026-05-04 15:28 52.31528 4.75989 8 ft 23 kts 267°
2026-05-04 15:29 52.31521 4.75718 8 ft 24 kts 268°
2026-05-04 15:30 52.31477 4.74463 8 ft 21 kts 267°
2026-05-04 15:30 52.31754 4.74311 8 ft 18 kts
2026-05-04 15:31 52.32012 4.74277 8 ft 18 kts 301°
2026-05-04 15:31 52.32035 4.74055 8 ft 22 kts 274°
2026-05-04 15:32 52.32254 4.73115 8 ft 33 kts 320°
2026-05-04 15:32 52.32616 4.72605 8 ft 35 kts 318°
2026-05-04 15:33 52.32955 4.71995 8 ft 37 kts 311°
2026-05-04 15:34 52.33035 4.71354 8 ft 14 kts 221°
2026-05-04 15:34 52.32957 4.71240 8 ft 11 kts 221°
2026-05-04 15:34 52.32937 4.71211 8 ft 0 kts 221°
2026-05-04 15:36 52.32931 4.71202 8 ft 4 kts 221°
2026-05-04 15:36 52.32894 4.71146 8 ft 9 kts 230°
2026-05-04 15:36 52.32865 4.71024 8 ft 13 kts 264°
2026-05-04 15:37 52.32894 4.70899 8 ft 11 kts 335°
2026-05-04 15:37 52.32932 4.70889 8 ft 0 kts
2026-05-04 15:38 52.32955 4.70890 8 ft 20 kts
2026-05-04 15:39 52.33379 4.70926 8 ft 99 kts
2026-05-04 15:39 52.34293 4.71006 8 ft 162 kts
2026-05-04 15:39 52.36845 4.71230 1063 ft 187 kts
2026-05-04 15:40 52.38121 4.71328 1849 ft 186 kts
2026-05-04 15:40 52.39436 4.71408 2310 ft 199 kts
2026-05-04 15:40 52.40866 4.71508 2732 ft 214 kts
2026-05-04 15:40 52.42394 4.72025 3110 ft 234 kts 21°
2026-05-04 15:41 52.43889 4.73241 3549 ft 253 kts 30°
2026-05-04 15:41 52.45418 4.74750 4312 ft 261 kts 31°
2026-05-04 15:41 52.46953 4.76346 5103 ft 267 kts 39°
2026-05-04 15:41 52.48035 4.78805 5657 ft 272 kts 70°
2026-05-04 15:42 52.48360 4.81875 5939 ft 274 kts 85°
2026-05-04 15:42 52.48477 4.84981 5931 ft 275 kts 86°
2026-05-04 15:42 52.48596 4.88132 5956 ft 275 kts 88°
2026-05-04 15:42 52.48298 4.91185 5958 ft 276 kts 114°
2026-05-04 15:43 52.47191 4.93794 6113 ft 284 kts 133°
2026-05-04 15:43 52.45867 4.96206 7013 ft 287 kts 132°
2026-05-04 15:43 52.44563 4.98621 8100 ft 285 kts 133°
2026-05-04 15:43 52.43259 5.01036 8995 ft 288 kts 133°
2026-05-04 15:44 52.41946 5.03472 9833 ft 291 kts 133°
2026-05-04 15:44 52.40587 5.05990 10587 ft 299 kts 133°
2026-05-04 15:44 52.39186 5.08579 11039 ft 316 kts 133°
2026-05-04 15:44 52.37687 5.11348 11505 ft 334 kts 133°
2026-05-04 15:45 52.36093 5.14288 11899 ft 353 kts 133°
2026-05-04 15:45 52.34436 5.17342 12264 ft 372 kts 132°
2026-05-04 15:45 52.32683 5.20573 12721 ft 387 kts 132°
2026-05-04 15:45 52.30870 5.23914 13485 ft 393 kts 133°
2026-05-04 15:46 52.29056 5.27247 14338 ft 396 kts 132°
2026-05-04 15:46 52.27244 5.30584 15092 ft 400 kts 132°
2026-05-04 15:46 52.25388 5.33998 15827 ft 405 kts 132°
2026-05-04 15:46 52.23517 5.37432 16554 ft 409 kts 132°
2026-05-04 15:47 52.21613 5.40914 17300 ft 412 kts 132°
2026-05-04 15:47 52.19711 5.44390 18010 ft 416 kts 132°
2026-05-04 15:47 52.17794 5.47888 18701 ft 420 kts 133°
2026-05-04 15:47 52.15829 5.51469 19370 ft 424 kts 133°
2026-05-04 15:48 52.13862 5.55050 20008 ft 428 kts 133°
2026-05-04 15:48 52.11895 5.58620 20625 ft 432 kts 133°
2026-05-04 15:48 52.07846 5.65953 21870 ft 440 kts 134°
2026-05-04 15:49 52.05794 5.69663 22470 ft 444 kts 134°
2026-05-04 15:49 52.03731 5.73385 23043 ft 448 kts 134°
2026-05-04 15:49 52.01660 5.77116 23630 ft 451 kts 134°
2026-05-04 15:49 51.99540 5.80929 24233 ft 455 kts 134°
2026-05-04 15:50 51.97424 5.84736 24839 ft 457 kts 134°
2026-05-04 15:50 51.95316 5.88521 25440 ft 459 kts 135°
2026-05-04 15:50 51.93178 5.92352 26007 ft 462 kts 135°
2026-05-04 15:50 51.91009 5.96227 26562 ft 465 kts 135°
2026-05-04 15:51 51.88836 6.00105 27074 ft 468 kts 135°
2026-05-04 15:51 51.86645 6.04007 27602 ft 470 kts 135°
2026-05-04 15:51 51.84483 6.07883 28117 ft 473 kts 135°
2026-05-04 15:51 51.82275 6.11936 28689 ft 475 kts 135°
2026-05-04 15:52 51.80114 6.15927 29433 ft 472 kts 135°
2026-05-04 15:52 51.77980 6.19859 30208 ft 467 kts 135°
2026-05-04 15:52 51.75862 6.23745 30937 ft 464 kts 136°
2026-05-04 15:52 51.73716 6.27664 31597 ft 462 kts 136°
2026-05-04 15:53 51.71612 6.31497 32149 ft 462 kts 136°
2026-05-04 15:53 51.69488 6.35356 32699 ft 462 kts 136°
2026-05-04 15:53 51.67357 6.39222 33207 ft 462 kts 136°
2026-05-04 15:53 51.65240 6.43058 33667 ft 463 kts 136°
2026-05-04 15:54 51.63079 6.46970 34086 ft 465 kts 136°
2026-05-04 15:54 51.60937 6.50848 34458 ft 467 kts 136°
2026-05-04 15:54 51.58803 6.54705 34808 ft 470 kts 137°
2026-05-04 15:54 51.56609 6.58667 34921 ft 472 kts 137°
2026-05-04 15:55 51.52250 6.66510 34929 ft 472 kts 137°
2026-05-04 15:55 51.47910 6.74297 34932 ft 471 kts 137°
2026-05-04 15:56 51.43461 6.81942 34934 ft 467 kts 141°
2026-05-04 15:56 51.38589 6.88815 34942 ft 463 kts 147°
2026-05-04 15:57 51.33350 6.94750 34943 ft 460 kts 153°
2026-05-04 15:57 51.27964 7.00138 34941 ft 460 kts 153°
2026-05-04 15:58 51.22564 7.05565 34935 ft 460 kts 153°
2026-05-04 15:58 51.17151 7.10986 34928 ft 460 kts 153°
2026-05-04 15:59 51.11754 7.16371 34934 ft 461 kts 153°
2026-05-04 15:59 51.06314 7.21786 34940 ft 461 kts 153°
2026-05-04 16:00 51.01796 7.26269 34936 ft 461 kts 153°
2026-05-04 16:00 50.95480 7.32521 34944 ft 461 kts 153°
2026-05-04 16:01 50.90033 7.37895 34947 ft 461 kts 153°
2026-05-04 16:01 50.84586 7.43254 34946 ft 462 kts 153°
2026-05-04 16:02 50.79161 7.48574 34946 ft 462 kts 153°
2026-05-04 16:03 50.70998 7.56585 34944 ft 463 kts 152°
2026-05-04 16:03 50.65643 7.62142 34946 ft 464 kts 151°
2026-05-04 16:04 50.60242 7.67765 34946 ft 464 kts 152°
2026-05-04 16:04 50.52188 7.76081 34949 ft 465 kts 152°
2026-05-04 16:05 50.46805 7.81612 34950 ft 465 kts 152°
2026-05-04 16:06 50.38690 7.89915 34947 ft 466 kts 152°
2026-05-04 16:07 50.27847 8.00958 34946 ft 465 kts 152°
2026-05-04 16:08 50.17006 8.11722 34947 ft 463 kts 156°
2026-05-04 16:09 50.02314 8.21147 34953 ft 457 kts 166°
2026-05-04 16:10 49.90233 8.27328 34949 ft 457 kts 166°
2026-05-04 16:11 49.78184 8.33444 34943 ft 456 kts 166°
2026-05-04 16:12 49.60119 8.42551 34935 ft 457 kts 166°
2026-05-04 16:13 49.48095 8.48574 34936 ft 457 kts 166°
2026-05-04 16:14 49.35994 8.54603 34933 ft 457 kts 166°
2026-05-04 16:16 49.20908 8.62075 34922 ft 457 kts 165°
2026-05-04 16:17 49.05837 8.69489 34914 ft 456 kts 166°
2026-05-04 16:18 48.93714 8.74902 34305 ft 451 kts 173°
2026-05-04 16:19 48.84312 8.76026 31671 ft 455 kts 184°
2026-05-04 16:19 48.78118 8.75092 30349 ft 449 kts 192°
2026-05-04 16:20 48.69967 8.72925 28539 ft 446 kts 192°
2026-05-04 16:20 48.62872 8.71042 27255 ft 444 kts 192°
2026-05-04 16:21 48.53869 8.68653 25795 ft 432 kts 192°
2026-05-04 16:22 48.48071 8.67118 24937 ft 422 kts 192°
2026-05-04 16:22 48.39527 8.64859 23627 ft 410 kts 192°
2026-05-04 16:23 48.31290 8.62451 22381 ft 399 kts 193°
2026-05-04 16:24 48.20598 8.59203 20692 ft 388 kts 193°
2026-05-04 16:25 48.15340 8.57627 19841 ft 384 kts 192°
2026-05-04 16:26 48.04991 8.54546 18168 ft 376 kts 192°
2026-05-04 16:26 47.97372 8.52299 16940 ft 371 kts 190°
2026-05-04 16:27 47.92255 8.52128 16122 ft 370 kts 175°
2026-05-04 16:28 47.84750 8.54342 14895 ft 365 kts 169°
2026-05-04 16:28 47.77375 8.56664 13671 ft 360 kts 169°
2026-05-04 16:29 47.67913 8.60505 12046 ft 352 kts 148°
2026-05-04 16:30 47.63001 8.68411 10873 ft 347 kts 130°
2026-05-04 16:31 47.60589 8.72882 10671 ft 325 kts 130°
2026-05-04 16:31 47.56213 8.81107 10309 ft 288 kts 121°
2026-05-04 16:32 47.54997 8.89372 10025 ft 268 kts 98°
2026-05-04 16:33 47.54623 8.94817 9467 ft 269 kts 98°
2026-05-04 16:33 47.54288 8.99399 8946 ft 269 kts 98°
2026-05-04 16:34 47.53005 9.04383 8311 ft 263 kts 140°
2026-05-04 16:34 47.50876 9.05908 7915 ft 259 kts 173°
2026-05-04 16:35 47.45545 9.05192 7065 ft 253 kts 187°
2026-05-04 16:35 47.42433 9.00300 6648 ft 235 kts 269°
2026-05-04 16:36 47.42596 8.97921 6331 ft 232 kts 276°
2026-05-04 16:36 47.42993 8.93358 5767 ft 221 kts 276°
2026-05-04 16:37 47.43286 8.89644 5328 ft 214 kts 276°
2026-05-04 16:37 47.43549 8.86803 5042 ft 205 kts 277°
2026-05-04 16:37 47.43887 8.82767 4982 ft 197 kts 276°
2026-05-04 16:38 47.44118 8.79432 4591 ft 195 kts 276°
2026-05-04 16:39 47.44516 8.73479 3756 ft 193 kts 277°
2026-05-04 16:39 47.44772 8.69732 3212 ft 173 kts 278°
2026-05-04 16:40 47.45028 8.65864 2692 ft 157 kts 277°
2026-05-04 16:40 47.45208 8.63216 2338 ft 154 kts 277°
2026-05-04 16:41 47.45481 8.59594 1809 ft 151 kts 276°
2026-05-04 16:41 47.45785 8.55273 1397 ft 95 kts 277°
2026-05-04 16:42 47.45726 8.54240 1399 ft 14 kts 214°
2026-05-04 16:43 47.45593 8.54380 1401 ft 15 kts 110°
2026-05-04 16:43 47.45509 8.54745 1397 ft 21 kts 109°
2026-05-04 16:43 47.45440 8.55047 1395 ft 24 kts 109°
2026-05-04 16:44 47.45530 8.55396 1401 ft 14 kts 341°
2026-05-04 16:45 47.45671 8.55314 1397 ft 0 kts 343°
2026-05-04 16:46 47.45919 8.55161 1394 ft 19 kts 350°
2026-05-04 16:46 47.45971 8.55428 1398 ft 14 kts 98°
2026-05-04 16:47 47.46034 8.55521 1398 ft 4 kts 10°
2026-05-04 16:47 47.46046 8.55525 1398 ft 0 kts